Tracking 27380 objects as of 6-Jun-2023
HD Live streaming from Space Station
objects crossing your sky now

BREEZE-M DEB

Track BREEZE-M DEB now!
10-day predictions


NORAD ID: 38592
Int'l Code: 2008-011AP
Perigee: 692.3 km
Apogee: 25,952.5 km
Inclination: 48.7 °
Period: 458.4 minutes
Semi major axis: 19693 km
RCS: 0.003 m2 (small)
Launch date: March 14, 2008
Source: Commonwealth of Independent States (former USSR) (CIS)
Launch site: TYURATAM MISSILE AND SPACE COMPLEX (TTMTR)

Note: This is SATELLITE DEBRIS
Your satellite tracking list
Your tracking list is empty




NASA's NSSDC Master Catalog

Two Line Element Set (TLE):
1 38592U 08011AP  23156.27674389  .00000112  00000-0  20724-2 0  9991
2 38592  48.6810 284.5272 6413376  10.0050  10.2915  3.14138982136425
Source of the keplerian elements: AFSPC